Location: Unspecified
(0.0000°N, 0.0000°E)
Time: 04:46:32
(UTC+00:00)

USA 198 - Visible Passes

Search period start: 14 May 2026 00:00
Search period end: 24 May 2026 00:00
Orbit: 1511 x 38847 km, 64.0° (Epoch: 14 June)

Date Brightness Start Highest point End Pass type
(mag) Time Alt. Az. Time Alt. Az. Time Alt. Az.
14 May 7.7 17:02:31 10° SSW 17:24:49 85° WNW 04:30:10 10° SE visible
15 May 7.7 16:58:14 10° SSW 17:20:33 85° WNW 04:25:53 10° SE visible
16 May 7.7 16:53:57 10° SSW 17:16:17 85° WNW 04:21:37 10° SE visible
17 May 7.7 16:49:40 10° SSW 17:12:00 85° WNW 04:17:19 10° SE visible
18 May 7.7 16:45:23 10° SSW 17:07:44 85° WNW 04:13:03 10° SE visible
19 May 7.7 16:41:06 10° SSW 17:03:27 85° WNW 04:08:46 10° SE visible
20 May 7.7 16:36:49 10° SSW 16:59:11 85° WNW 04:04:30 10° SE visible
21 May 7.7 16:32:33 10° SSW 16:54:55 85° WNW 04:00:13 10° SE visible
22 May 7.6 16:28:16 10° SSW 16:50:38 85° WNW 03:55:56 10° SE visible
